York, PA

6:33 AM EST on December 06, 2019 (GMT -0500)
York

Weather History for KTHV - October, 2019

Change the Weather History Date:

Wednesday, October 30, 2019

  Actual Average Record
Temperature  
Mean Temperature 60 °F -  
Max Temperature 66 °F 0 °F 82 °F (2016)
Min Temperature 55 °F - 27 °F (2000)
Degree Days  
Heating Degree Days 4    
Growing Degree Days 10 (Base 50)    
Moisture  
Dew Point 54 °F    
Average Humidity 80    
Maximum Humidity 93    
Minimum Humidity 63    
Precipitation  
Precipitation 0.48 in - - ()
Sea Level Pressure  
Sea Level Pressure 30.18 in    
Wind  
Wind Speed 2 mph ()    
Max Wind Speed 8 mph    
Max Gust Speed -    
Visibility 7.9 miles    
Events Rain    
Averages and records for this station are not official NWS values.
T = Trace of Precipitation, MM = Missing Value Source: Averaged Metar Reports

Daily Weather History Graph

Daily Weather History Graph

Search for Another Location

Airport or City:

Astronomy

Oct. 30, 2019 Rise Set
Actual Time 7:33 AM EDT 6:07 PM EDT
Civil Twilight 7:05 AM EDT 6:35 PM EDT
Nautical Twilight 6:34 AM EDT 7:07 PM EDT
Astronomical Twilight 6:02 AM EDT 7:39 PM EDT
Moon 10:14 AM EDT (10/30) 8:14 PM EDT (10/30)
Length of Visible Light 11h 29m
Length of Day
10h 33m
Waxing Crescent, 8% of the Moon is Illuminated
Oct 30
Waxing Crescent
Nov 4
First Quarter
Nov 12
Full
Nov 19
Last Quarter
Nov 26
New

Hourly Weather History & Observations

Time (EDT) Temp. Dew Point Humidity Pressure Visibility Wind Dir Wind Speed Gust Speed Precip Events Conditions
12:53 AM 57.9 °F 51.1 °F 78% 30.27 in 10.0 mi SE 4.6 mph - N/A   Overcast
1:53 AM 57.0 °F 51.1 °F 81% 30.26 in 10.0 mi SE 3.5 mph - N/A   Overcast
2:53 AM 57.0 °F 51.1 °F 81% 30.26 in 10.0 mi Calm Calm - N/A   Overcast
3:53 AM 57.0 °F 52.0 °F 83% 30.25 in 10.0 mi Calm Calm - N/A   Overcast
4:53 AM 57.0 °F 52.0 °F 83% 30.25 in 10.0 mi Calm Calm - N/A   Overcast
5:53 AM 57.0 °F 51.1 °F 81% 30.26 in 10.0 mi Calm Calm - N/A   Overcast
6:53 AM 55.9 °F 51.1 °F 84% 30.26 in 10.0 mi Calm Calm - N/A   Overcast
7:53 AM 57.0 °F 52.0 °F 83% 30.26 in 10.0 mi Calm Calm - N/A   Overcast
8:53 AM 57.0 °F 52.0 °F 83% 30.29 in 8.0 mi Calm Calm - N/A   Overcast
9:53 AM 57.9 °F 52.0 °F 81% 30.27 in 10.0 mi SE 3.5 mph - N/A   Overcast
10:53 AM 60.1 °F 52.0 °F 75% 30.28 in 10.0 mi Calm Calm - N/A   Overcast
11:40 AM 62.1 °F 52.0 °F 70% 30.25 in 10.0 mi ESE 3.5 mph - N/A   Mostly Cloudy
11:53 AM 63.0 °F 53.1 °F 70% 30.25 in 10.0 mi Variable 3.5 mph - N/A   Scattered Clouds
12:53 PM 64.9 °F 54.0 °F 68% 30.23 in 10.0 mi Calm Calm - N/A   Partly Cloudy
1:19 PM 64.0 °F 53.1 °F 67% 30.21 in 10.0 mi Variable 3.5 mph - N/A   Mostly Cloudy
1:32 PM 64.9 °F 54.0 °F 68% 30.20 in 10.0 mi Variable 3.5 mph - N/A   Overcast
1:53 PM 64.9 °F 53.1 °F 65% 30.19 in 10.0 mi Calm Calm - N/A   Mostly Cloudy
2:26 PM 66.0 °F 53.1 °F 63% 30.17 in 10.0 mi SE 4.6 mph - N/A   Mostly Cloudy
2:37 PM 64.9 °F 53.1 °F 65% 30.17 in 10.0 mi Calm Calm - N/A   Scattered Clouds
2:53 PM 66.0 °F 53.1 °F 63% 30.17 in 10.0 mi Calm Calm - N/A   Mostly Cloudy
3:53 PM 64.9 °F 54.0 °F 68% 30.16 in 10.0 mi ESE 5.8 mph - N/A   Overcast
4:53 PM 64.0 °F 54.0 °F 70% 30.15 in 10.0 mi East 5.8 mph - N/A   Overcast
5:53 PM 63.0 °F 54.0 °F 72% 30.14 in 10.0 mi SSE 4.6 mph - N/A   Overcast
6:53 PM 61.0 °F 55.0 °F 81% 30.14 in 9.0 mi Calm Calm - 0.01 in Rain Light Rain
7:51 PM 60.8 °F 55.4 °F 82% 30.12 in 7.0 mi Variable 4.6 mph - 0.03 in Rain Light Rain
7:53 PM 60.1 °F 55.9 °F 86% 30.13 in 6.0 mi SSE 4.6 mph - 0.03 in Rain Light Rain
8:03 PM 59.0 °F 55.9 °F 90% 30.12 in 4.0 mi SSE 4.6 mph - 0.01 in Rain Light Rain
8:16 PM 59.0 °F 55.9 °F 90% 30.12 in 2.5 mi SE 4.6 mph - 0.04 in Rain Rain
8:33 PM 59.0 °F 55.9 °F 90% 30.10 in 3.0 mi East 3.5 mph - 0.07 in Rain Light Rain
8:53 PM 59.0 °F 55.9 °F 90% 30.10 in 4.0 mi SE 4.6 mph - 0.09 in Rain Light Rain
9:40 PM 57.9 °F 55.9 °F 93% 30.09 in 2.5 mi SE 4.6 mph - 0.09 in Rain Rain
9:53 PM 57.9 °F 55.9 °F 93% 30.09 in 2.5 mi SSE 3.5 mph - 0.14 in Rain Rain
10:10 PM 57.9 °F 55.9 °F 93% 30.07 in 3.0 mi SE 6.9 mph - 0.07 in Rain Rain
10:21 PM 57.9 °F 55.9 °F 93% 30.07 in 2.5 mi SE 8.1 mph - 0.11 in Rain Rain
10:28 PM 59.0 °F 55.9 °F 90% 30.06 in 4.0 mi SE 5.8 mph - 0.12 in Rain Light Rain
10:53 PM 59.0 °F 55.9 °F 90% 30.06 in 5.0 mi Variable 5.8 mph - 0.16 in Rain Light Rain
11:53 PM 60.1 °F 55.9 °F 86% 30.04 in 10.0 mi Variable 4.6 mph - 0.05 in Rain Light Rain